www.pogodaiklimat.ru

Погода и климат >> Архив погоды >> Австралия >> Kalumburu


ПОГОДА в Kalumburu

  • Прогноз погоды в Kalumburu
  • Монитор погоды в Kalumburu
  • Климат города

АРХИВ ПОГОДЫ в Kalumburu

Время (UTC), дата Ветер
(напр.,м/с)
 
Видим.   Явления Облачность Т
(С)
Тd
(С)
f
(%)
Тe
(С)
Тes
(С)
Комфортность P
(гПа)
Po
(гПа)
Тmin
(С)
Tmax
(С)
R
(мм)
R24
(мм)
S
(см)
19 15.10 штиль 0 н/о н/о +22.9 +21.0 89 +30 +30 очень
душно
1008.1 1005.4
21 15.10 штиль 0 н/о н/о +22.9 +21.2 90 +30 +30 очень
душно
1009.4 1006.7
22 15.10 ЮЗ 1 н/о н/о +25.0 +23.2 90 +33 +33 очень
душно
1009.6 1006.9
00 16.10 Ю 3 н/о н/о +32.3 +20.9 51 +40 +40 очень
душно
1010.2 1007.5
01 16.10 ЮВ 4 н/о н/о +37.6 +14.2 25 +38 +38 очень
жарко
1010.0 1007.3 +22.6
03 16.10 ЮВ 4 н/о н/о +41.7 +22.1 33 +40 +40 очень
жарко
1008.1 1005.4
04 16.10 В 5 н/о н/о +42.0 +10.0 15 +40 +40 очень
жарко
1007.0 1004.3
06 16.10 С 7 н/о н/о +34.9 +23.2 51 +45 +45 опасность
перегрева
1005.8 1003.1
07 16.10 С 6 н/о н/о +33.5 +22.6 53 +43 +43 опасность
перегрева
1005.8 1003.1
09 16.10 С 6 н/о н/о +30.2 +22.6 64 +40 +40 очень
душно
1007.4 1004.7
10 16.10 С 5 н/о н/о +29.4 +22.6 67 +39 +39 очень
душно
1008.3 1005.6
12 16.10 С 3 н/о н/о +28.3 +22.8 72 +38 +38 очень
душно
1009.9 1007.2
13 16.10 С 3 н/о н/о +28.5 +23.2 73 +38 +38 очень
душно
1010.5 1007.8
15 16.10 С 2 н/о н/о +26.8 +22.4 77 +35 +35 очень
душно
1009.8 1007.1
16 16.10 С 3 н/о н/о +27.7 +23.1 76 +37 +37 очень
душно
1009.8 1007.1
18 16.10 штиль 0 н/о н/о +26.2 +22.7 81 +35 +35 очень
душно
1008.6 1005.9
19 16.10 СВ 1 н/о н/о +25.4 +22.7 85 +33 +33 очень
душно
1008.5 1005.8
21 16.10 ЮВ 1 н/о н/о +23.8 +21.7 88 +30 +30 очень
душно
1009.7 1007.0
22 16.10 В 3 н/о н/о +26.9 +24.0 84 +37 +37 очень
душно
1010.5 1007.8
00 17.10 СВ 4 н/о н/о +32.1 +21.6 54 +40 +40 очень
душно
1010.9 1008.2
01 17.10 С 4 н/о н/о +34.0 +20.4 45 +41 +41 опасность
перегрева
1010.7 1008.0
03 17.10 С 6 н/о н/о +35.3 +21.2 44 +43 +43 опасность
перегрева
1010.1 1007.4
04 17.10 С 7 н/о н/о +34.2 +20.6 45 +41 +41 опасность
перегрева
1009.4 1006.7
06 17.10 С 7 н/о н/о +36.0 +17.7 34 +39 +39 очень
душно
1007.0 1004.3
07 17.10 С 7 н/о н/о +34.7 +20.3 43 +41 +41 опасность
перегрева
1007.3 1004.6
09 17.10 С 6 н/о н/о +31.4 +19.1 48 +37 +37 очень
душно
1008.4 1005.7
10 17.10 С 5 н/о н/о +29.7 +21.9 63 +38 +38 очень
душно
1008.9 1006.2
12 17.10 С 4 н/о н/о +28.6 +22.6 70 +38 +38 очень
душно
1010.4 1007.7
13 17.10 С 3 н/о н/о +28.2 +23.1 74 +38 +38 очень
душно
1011.1 1008.4 +37.7
15 17.10 С 3 н/о н/о +28.1 +22.6 72 +37 +37 очень
душно
1010.5 1007.8
16 17.10 С 3 н/о н/о +28.1 +22.8 73 +37 +37 очень
душно
1010.2 1007.5
18 17.10 С 2 н/о н/о +27.6 +23.0 76 +37 +37 очень
душно
1009.3 1006.6
19 17.10 СЗ 2 н/о н/о +27.7 +23.1 76 +37 +37 очень
душно
1009.5 1006.8
21 17.10 штиль 0 н/о н/о +25.9 +22.4 81 +34 +34 очень
душно
1010.4 1007.7
22 17.10 штиль 0 н/о н/о +26.8 +24.1 85 +37 +37 очень
душно
1011.2 1008.5
00 18.10 СЗ 3 н/о н/о +31.7 +22.1 57 +41 +41 опасность
перегрева
1012.6 1009.9
01 18.10 С 3 н/о н/о +34.3 +20.3 44 +41 +41 опасность
перегрева
1012.3 1009.6 +25.1
03 18.10 С 5 н/о н/о +35.0 +19.0 39 +40 +40 очень
душно
1011.5 1008.8
04 18.10 С 6 н/о н/о +35.1 +20.2 42 +41 +41 опасность
перегрева
1010.3 1007.6
06 18.10 С 7 н/о н/о +33.5 +20.6 47 +40 +40 очень
душно
1009.0 1006.3
07 18.10 С 6 н/о н/о +33.4 +21.2 49 +41 +41 опасность
перегрева
1009.3 1006.6
09 18.10 С 4 н/о н/о +30.6 +21.7 59 +39 +39 очень
душно
1010.5 1007.8
10 18.10 СЗ 4 н/о н/о +29.5 +22.2 65 +38 +38 очень
душно
1010.9 1008.2
12 18.10 СЗ 2 н/о н/о +28.9 +21.7 65 +37 +37 очень
душно
1012.4 1009.7
13 18.10 СЗ 3 н/о н/о +28.5 +22.0 68 +37 +37 очень
душно
1012.5 1009.8 +36.5
15 18.10 СЗ 2 н/о н/о +28.1 +22.1 70 +37 +37 очень
душно
1012.8 1010.1
16 18.10 СЗ 2 н/о н/о +27.7 +22.4 73 +36 +36 очень
душно
1012.1 1009.4
18 18.10 З 2 н/о н/о +26.9 +22.1 75 +35 +35 очень
душно
1011.0 1008.3
19 18.10 С 2 н/о н/о +25.2 +21.1 78 +32 +32 очень
душно
1010.8 1008.1
21 18.10 штиль 0 н/о н/о +23.6 +21.1 86 +30 +30 очень
душно
1012.1 1009.4
22 18.10 штиль 0 н/о н/о +26.2 +23.5 85 +36 +36 очень
душно
1012.9 1010.2
00 19.10 СЗ 2 н/о н/о +32.2 +21.7 54 +41 +41 опасность
перегрева
1013.8 1011.1
01 19.10 ЮЗ 3 н/о н/о +33.8 +19.5 43 +39 +39 очень
душно
1013.6 1010.9 +23.5
03 19.10 СЗ 4 н/о н/о +36.7 +20.1 38 +42 +42 опасность
перегрева
1012.0 1009.3
04 19.10 С 4 н/о н/о +36.4 +18.9 36 +41 +41 опасность
перегрева
1010.9 1008.2
06 19.10 С 6 н/о н/о +35.5 +17.2 34 +39 +39 очень
душно
1009.4 1006.7
07 19.10 С 6 н/о н/о +35.4 +17.1 34 +38 +38 очень
душно
1009.1 1006.4
09 19.10 С 5 н/о н/о +31.7 +19.0 47 +37 +37 очень
душно
1009.9 1007.2
10 19.10 С 4 н/о н/о +30.6 +18.7 49 +36 +36 очень
душно
1010.8 1008.1
12 19.10 СЗ 3 н/о н/о +29.4 +18.8 53 +35 +35 очень
душно
1012.1 1009.4
13 19.10 СЗ 3 н/о н/о +28.7 +20.4 61 +35 +35 очень
душно
1012.7 1010.0 +37.9
15 19.10 штиль 0 н/о н/о +26.7 +20.3 68 +33 +33 очень
душно
1012.5 1009.8
16 19.10 штиль 0 н/о н/о +25.1 +20.8 77 +31 +31 очень
душно
1011.8 1009.1
18 19.10 штиль 0 н/о н/о +24.6 +21.3 82 +31 +31 очень
душно
1010.7 1008.0
19 19.10 штиль 0 н/о н/о +24.7 +21.4 82 +31 +31 очень
душно
1010.7 1008.0
21 19.10 штиль 0 н/о н/о +23.9 +21.2 85 +30 +30 очень
душно
1011.7 1009.0
22 19.10 штиль 0 н/о н/о +25.3 +22.4 84 +33 +33 очень
душно
1012.2 1009.5
00 20.10 З 3 н/о н/о +32.9 +19.0 44 +38 +38 очень
душно
1012.9 1010.2
01 20.10 З 3 н/о н/о +35.6 +17.3 34 +39 +39 очень
душно
1012.6 1009.9 +23.6
03 20.10 С 4 н/о н/о +38.5 +17.3 29 +41 +41 опасность
перегрева
1010.6 1007.9
04 20.10 С 6 н/о н/о +39.1 +17.8 29 +42 +42 опасность
перегрева
1009.4 1006.7
06 20.10 СЗ 5 н/о н/о +37.4 +14.7 26 +38 +38 душно 1008.2 1005.5
07 20.10 З 4 н/о н/о +35.2 +14.5 29 +36 +36 очень
жарко
1008.1 1005.4
09 20.10 СЗ 4 н/о н/о +31.8 +15.7 38 +34 +34 душно 1009.7 1007.0
10 20.10 СЗ 3 н/о н/о +31.0 +17.7 45 +35 +35 очень
душно
1010.4 1007.7
12 20.10 СЗ 3 н/о н/о +29.5 +18.3 51 +34 +34 очень
душно
1011.9 1009.2
13 20.10 З 3 н/о н/о +28.8 +21.8 66 +37 +37 очень
душно
1011.8 1009.1 +40.4
15 20.10 З 3 н/о н/о +28.2 +22.4 71 +37 +37 очень
душно
1011.1 1008.4
16 20.10 З 2 н/о н/о +27.9 +22.4 72 +37 +37 очень
душно
1010.3 1007.6
18 20.10 СЗ 2 н/о н/о +27.8 +22.7 74 +37 +37 очень
душно
1009.8 1007.1
19 20.10 СЗ 3 н/о н/о +28.0 +22.7 73 +37 +37 очень
душно
1010.2 1007.5
21 20.10 З 2 н/о н/о +28.0 +22.7 73 +37 +37 очень
душно
1011.0 1008.3
22 20.10 СЗ 2 н/о н/о +28.2 +23.1 74 +38 +38 очень
душно
1011.7 1009.0
00 21.10 СЗ 3 н/о н/о +33.0 +22.4 54 +42 +42 опасность
перегрева
1012.8 1010.1
01 21.10 С 3 н/о н/о +32.5 +20.7 50 +40 +40 очень
душно
1012.7 1010.0 +27.4
03 21.10 СЗ 4 н/о н/о +35.9 +19.3 38 +41 +41 опасность
перегрева
1011.1 1008.4
04 21.10 СЗ 4 н/о н/о +36.2 +19.6 38 +42 +42 опасность
перегрева
1009.5 1006.8
06 21.10 СЗ 4 н/о н/о +36.2 +19.2 37 +41 +41 опасность
перегрева
1008.1 1005.4
07 21.10 СЗ 5 н/о н/о +36.3 +20.1 39 +42 +42 опасность
перегрева
1007.3 1004.6
09 21.10 СЗ 4 н/о н/о +31.4 +21.3 55 +39 +39 очень
душно
1008.3 1005.6
10 21.10 С 4 н/о н/о +29.7 +21.9 63 +38 +38 очень
душно
1009.5 1006.8
12 21.10 СЗ 4 н/о н/о +28.2 +22.2 70 +37 +37 очень
душно
1010.9 1008.2
13 21.10 СЗ 3 н/о н/о +27.7 +22.2 72 +36 +36 очень
душно
1011.4 1008.7 +38.0
15 21.10 СЗ 2 н/о н/о +26.8 +22.2 76 +35 +35 очень
душно
1010.6 1007.9
16 21.10 штиль 0 н/о н/о +25.9 +21.8 78 +33 +33 очень
душно
1010.2 1007.5
18 21.10 СЗ 2 н/о н/о +26.8 +22.0 75 +35 +35 очень
душно
1009.5 1006.8
19 21.10 СЗ 2 н/о н/о +26.8 +22.2 76 +35 +35 очень
душно
1009.8 1007.1
21 21.10 З 2 н/о н/о +27.3 +22.3 74 +36 +36 очень
душно
1010.9 1008.2
22 21.10 СЗ 2 н/о н/о +27.5 +22.4 74 +36 +36 очень
душно
1011.8 1009.1
00 22.10 З 2 н/о н/о +29.4 +22.6 67 +39 +39 очень
душно
1012.8 1010.1
01 22.10 СЗ 2 н/о н/о +30.7 +22.3 61 +40 +40 очень
душно
1012.4 1009.7 +24.9
03 22.10 СЗ 4 н/о н/о +34.4 +21.8 48 +43 +43 опасность
перегрева
1010.4 1007.7
04 22.10 С 4 н/о н/о +34.2 +21.9 49 +43 +43 опасность
перегрева
1009.3 1006.6
06 22.10 С 5 н/о н/о +35.2 +20.3 42 +42 +42 опасность
перегрева
1007.6 1004.9
07 22.10 СЗ 4 н/о н/о +35.5 +18.1 36 +39 +39 очень
душно
1007.2 1004.5
09 22.10 С 5 н/о н/о +31.4 +21.8 57 +40 +40 очень
душно
1008.4 1005.7
10 22.10 СЗ 4 н/о н/о +29.7 +22.2 64 +39 +39 очень
душно
1009.0 1006.3
12 22.10 СЗ 3 н/о н/о +27.9 +22.8 74 +37 +37 очень
душно
1010.4 1007.7
13 22.10 З 2 н/о н/о +27.6 +22.8 75 +37 +37 очень
душно
1011.2 1008.5 +37.6
15 22.10 З 2 н/о н/о +27.4 +23.0 77 +37 +37 очень
душно
1010.6 1007.9
16 22.10 ЮЗ 1 н/о н/о +27.2 +22.6 76 +36 +36 очень
душно
1010.3 1007.6
18 22.10 Ю 1 н/о н/о +25.6 +22.1 81 +33 +33 очень
душно
1009.0 1006.3
19 22.10 штиль 0 н/о н/о +25.8 +22.5 82 +34 +34 очень
душно
1008.6 1005.9

 

Местоположение метеостанции Kalumburu (Западная Австралия, Австралия): широта -14.30 долгота 126.65 высота над уровнем моря 24 м.

В архиве по умолчанию представлена погода в Kalumburu за последнюю неделю. Архивные данные за месяц целиком и за предыдущие месяцы, начиная с января 2011 года, Вы можете получить, выбрав интересующий диапазон дат из раскрывающегося списка и нажав кнопку "Ввод!".


*Определитесь, кто Вы:
робот инопланетянин человек

Внимание! Время в таблицах - всемирное. Для получения местного времени необходимо прибавить поправку, которая в Kalumburu равна 8 ч.

Смотрите также архив погоды в соседних городах и на ближайших метеорологических станциях:

Погода в Truscott (Западная Австралия, Австралия) (38 км)
Погода в Troughton Island (Западная Австралия, Австралия) (82 км)
Погода в Wyndham Aero (Западная Австралия, Австралия) (209 км)
Погода в Kununurra (Западная Австралия, Австралия) (276 км)
Погода в Port Keats Aero (Северная территория, Австралия) (310 км)
Погода в Argyle Aero (Западная Австралия, Австралия) (323 км)
Погода в Browse Island (Западная Австралия, Австралия) (335 км)
Погода в Adele Island (Западная Австралия, Австралия) (400 км)
Погода в Dum In Mirrie (Северная территория, Австралия) (443 км)
Погода в Fitzroy Crossing Aero (Западная Австралия, Австралия) (447 км)

Пояснения к столбцам:

Ветер - указаны скорость ветра в м/с - средняя за 10 мин, порывы в срок и между сроками (в фигурных скобках) и направление, откуда дует ветер: С - северный, СВ - северо-восточный, В - восточный, ЮВ - юго-восточный, Ю - южный, ЮЗ - юго-западный, З - западный, СЗ - северо-западный.
Видимость - горизонтальная дальность видимости в метрах или километрах. При видимости от 1 до 10 км при отсутствии осадков обычно наблюдается дымка, при ухудшении видимости до 1 км и менее - туман. В сухую погоду видимость может ухудшаться дымом, пылью или мглою.
Явления - указаны атмосферные явления, наблюдавшиеся в срок или в последний час перед сроком; фигурными скобками обозначены явления, наблюдавшиеся между сроками (за 1-3 часа до срока); квадратными скобками обозначены град или гололедные отложения с указанием их диаметра в мм.
Облачность - указаны через наклонную черту общая и нижняя облачность в баллах и высота нижней границы облаков в метрах; квадратными скобками обозначены формы облаков: Ci - перистые, Cs - перисто-слоистые, Cc - перисто-кучевые, Ac - высококучевые, As - высокослоистые, Sc - слоисто-кучевые, Ns - слоисто-дождевые, Cu - кучевые, Cb - кучево-дождевые. Подробнее классификацию облаков см. в Атласе облаков (PDF).
T - Температура воздуха - температура, измеренная на высоте 2 м над землей.
Td - Температура точки росы - температура, при понижении до которой содержащийся в воздухе водяной пар достигнет насыщения.
f - Относительная влажность воздуха - влажноcть воздуха, измеренная на высоте 2 м над землей.
Te - Эффективная температура - температура, которую ощущает одетый по сезону человек в тени. Характеристика душности погоды. При расчете учитывается влияние влажности воздуха и скорости ветра на теплоощущения человека.
Tes - Эффективная температура на солнце - температура, которую ощущает человек, с поправкой на солнечный нагрев. Характеристика знойности погоды. Зависит от высоты солнца над горизонтом, облачности и скорости ветра. Ночью, в пасмурную погоду, а также при ветре 12 м/с и более поправка равна нулю.
P - Атмосферное давление - приведенное к уровню моря атмосферное давление.
Po - Атмосферное давление - измеренное на уровне метеостанции атмосферное давление.
Tmin - Минимальная температура - минимум температуры воздуха на высоте 2 м над землей.
Tmax - Максимальная температура - максимум температуры воздуха на высоте 2 м над землей.
R - Количество осадков - Количество выпавших осадков за период времени, мм. При наведении курсора мыши на число - период времени, за который выпало указанное количество осадков.
R24 - Количество осадков - Количество выпавших осадков за 24 часа, мм.
S - Снежный покров - Высота снежного покрова, см. При наведении курсора мыши на число - состояние снежного покрова и степень покрытия местности в баллах.